Location: Rosenheim
(47.8408°N, 12.2113°E)
Time: 08:33:57
(UTC+01:00)

ISS - Pass Details

Date: 12 November 2017
Orbit: 402 x 407 km, 51.6° (Epoch: 23 November)

Event Time Altitude Azimuth Distance (km) Brightness Sun altitude
Exits shadow 05:52:20 26° 298° (WNW) 840 -2.8 -13.5°
Maximum altitude 05:54:02 78° 21° (NNE) 415 -3.8 -13.3°
Drops below altitude 10° 05:57:17 10° 109° (ESE) 1,453 0.5 -12.7°
Sets 05:59:22 0° 111° (ESE) 2,311 2.0 -12.4°
